Skip Page Navigation
NASA JPL Caltech
NASA Logo - Jet Propulsion Laboratory + View the NASA Portal
+ Near-Earth Object (NEO) Program
Search JPL
JPL Home Earth Solar System Stars & Galaxies Technology
JPL Solar System Dynamics
BODIES ORBITS EPHEMERIDES TOOLS PHYSICAL DATA DISCOVERY FAQ SITE MAP
JPL Small-Body Database Browser
Search: [ help ]  
2199 Klet (1978 LA)
Classification: Main-belt Asteroid          SPK-ID: 2002199
Ephemeris | Orbit Diagram | Orbital Elements | Physical Parameters | Discovery Circumstances ]

[ show orbit diagram ]
Orbital Elements at Epoch 2456400.5 (2013-Apr-18.0) TDB
Reference: MPO253376 (heliocentric ecliptic J2000)
 Element Value Uncertainty (1-sigma)   Units 
e 0.2004720 n/a  
a 2.2418893 n/a AU
q 1.7924533 n/a AU
i 8.18626 n/a deg
node 147.02365 n/a deg
peri 142.31178 n/a deg
M 105.56801 n/a deg
tp 2456040.9581107
(2012-Apr-23.45811070)
n/a JED
period 1226.0824102
3.36
n/a
n/a
d
yr
n 0.29361811 n/a deg/d
Q 2.6913253 n/a AU
  Orbit Determination Parameters
   # obs. used (total)      1083  
   first obs. used      1941-??-??  
   last obs. used      2013-01-26  
   # oppositions      21  
   planetary ephem.      DE403  
   condition code      0  
   fit RMS      0.56  
   data source      MPC:mpn  
   producer      MPCLINUX  

Additional Information
 T_jup = 3.594 

Ephemeris | Orbit Diagram | Orbital Elements | Physical Parameters | Discovery Circumstances ]

Physical Parameter Table
Parameter Symbol Value Units Sigma Reference Notes
absolute magnitude H 13.1 mag n/a PDS3 (MPC 17264)  
rotation period rot_per 12.857 h n/a Asteroid Lightcurve DataBase (Rev. 2013-May-01) Published Reference List:
[Skiff, B.A. (2011) Posting on CALL web site. http://www.minorplanet.info/call.html]

2199 Klet           Discovered 1978 June 6 by A. Mrkos at the Klet Observatory.
Named for the observatory at which this minor planet was discovered and for the mountain in southern Bohemia on which the observatory is located.
NOTE: some special characters may not display properly (any characters within {} are an attempt to place the proper accent above a character)
Reference: MPC 5524Last Updated: 2006-03-21

Alternate Designations
 1978 LA = 1928 QE = 1941 HG = 1948 MD = 1975 RU 
Ephemeris | Orbit Diagram | Orbital Elements | Physical Parameters | Discovery Circumstances ]
ABOUT SSD CREDITS/AWARDS PRIVACY/COPYRIGHT GLOSSARY LINKS
FirstGov 2013-May-20 02:56 UT
(server date/time)  
NASA Home Page
Site Manager:   Donald K. Yeomans
Webmaster  Alan B. Chamberlin